Regional Weather Roundup
Issued by NWS

Home | Current Version | Previous Version | Graphics & Text | Print | Product List | Glossary On
Versions: 1 2 3 4 5 6 7 8 9 10 11 12 13 14 15 16 17 18 19 20 21 22 23 24 25 26 27 28 29 30 31 32 33 34 35 36 37 38 39 40 41 42 43 44 45 46 47 48 49 50
646
ASUS43 KLOT 041003
RWRIL

ILLINOIS REGIONAL WEATHER ROUNDUP
NATIONAL WEATHER SERVICE CHICAGO/ROMEOVILLE IL
500 AM CDT WED MAY 04 2016

NOTE: "FAIR" INDICATES FEW OR NO CLOUDS BELOW 12,000 FEET WITH NO
SIGNIFICANT WEATHER AND/OR OBSTRUCTIONS TO VISIBILITY.

* THESE STATIONS ARE NOT UNDER NWS QUALITY CONTROL. THEY ALSO MAY NOT
  REPORT WEATHER SUCH AS PRECIPITATION OR FOG.

ILZ001-002-007-009-015-016-024-041100-
NORTHWEST ILLINOIS

CITY           SKY/WX    TMP DP  RH WIND       PRES   REMARKS
MOLINE         FOG       45  43  93 W3        29.72R VSB 1/2
STERLING*      CLEAR     46  46 100 NW8       29.72R
$$

ILZ003-004-008-010-011-017-018-041100-
NORTH CENTRAL ILLINOIS

CITY           SKY/WX    TMP DP  RH WIND       PRES   REMARKS
ROCKFORD       CLEAR     46  43  89 N9        29.72R
FREEPORT*      CLEAR     44  43  97 NW8       29.74R
ROCHELLE*      PTCLDY    44  43  96 NW6       29.70S
DE KALB*       PTCLDY    45  44  95 NW10      29.69R
$$

ILZ005-006-012>014-019>023-041100-
NORTHEAST ILLINOIS

CITY           SKY/WX    TMP DP  RH WIND       PRES   REMARKS
CHICAGO-OHARE  LGT RAIN  50  47  89 N7        29.65R
CHICAGO-MIDWAY LGT RAIN  49  46  90 N16       29.64R FOG
AURORA         MOCLDY    48  45  89 NW13      29.68R
LANSING*       LGT RAIN  48  46  93 N8        29.63R
WAUKEGAN       LGT RAIN  46  40  79 NE18G29   29.66R
DUPAGE AIRPORT PTCLDY    47  43  86 NW9       29.66R
WHEELING       LGT RAIN  48  46  93 N7        29.66R FOG
NORTHERLY ISL    N/A     46  43  89 MISG        N/A
NORTHERLY ISL    N/A     46  43  89 MISG        N/A
$$

LMZ740>746-041100-
SOUTHERN LAKE MICHIGAN

STATION/POSITION SKY/WX   TEMP    WIND        PRES    VSBY  WAVE
                          AIR SEA DIR/SP/G                  HT/PER
                          (F)     (DEG/KT/KT) (MB)    (MI)  (FT/S)
SOUTHERN BUOY              43 41   10/ 12/ 14 1002.6          1/ 3
WILMETTE HARBOR            45 45   30/ 17/ 21   N/A           2/ 3
HARRISON CRIB              47      30/ 12/ 14   N/A
BURNHAM HARBOR             48      20/  6/ 14   N/A
CALUMET HARBOR             48     330/  9/ 14 1002.6F
BURNS HARBOR               49     340/ 12/ 14 1003.4F
MICHIGAN CITY              48     280/ 15/ 16   N/A
ST. JOSEPH                 48 48                N/A           3/ 3
$$

ILZ025>027-034>036-040-047-049-050-058-095>099-041100-
WEST-CENTRAL ILLINOIS

CITY           SKY/WX    TMP DP  RH WIND       PRES   REMARKS
QUINCY         PTCLDY    56  44  64 W10       29.69S
MACOMB*        CLEAR     46  46  97 CALM      29.71S
PITTSFIELD*    MOCLDY    57  46  66 W9        29.70S
$$

ILZ028>032-037-038-041>044-048-051>054-059>061-041100-
CENTRAL ILLINOIS

CITY           SKY/WX    TMP DP  RH WIND       PRES   REMARKS
BLOOMINGTON    CLOUDY    49  49 100 W8        29.68S
DECATUR        LGT RAIN  52  48  86 W5        29.70F
PEORIA         CLEAR     48  46  93 CALM      29.68S
SPRINGFIELD    CLOUDY    52  49  89 CALM      29.69F
TAYLORVILLE    NOT AVBL
$$

ILZ033-039-045-046-055>057-062-063-041100-
EAST-CENTRAL ILLINOIS

CITY           SKY/WX    TMP DP  RH WIND       PRES   REMARKS
CHAMPAIGN      LGT RAIN  51  50  96 SW13      29.67F
MATTOON        LGT RAIN  52  45  77 SW8       29.71R
$$

ILZ079-100>102-041100-
SOUTHWEST ILLINOIS

CITY           SKY/WX    TMP DP  RH WIND       PRES   REMARKS
ALTON          RAIN      55  43  64 SW12      29.72F
BELLEVILLE     CLOUDY    54  44  69 SW10      29.72F
CAHOKIA*       CLOUDY    56  42  59 SW8       29.73F
SPARTA*        CLOUDY    53  44  70 SW10      29.78F
$$

ILZ064>066-069>071-074>076-080>082-084>086-088>090-092>094-041100-
SOUTH-CENTRAL ILLINOIS

CITY           SKY/WX    TMP DP  RH WIND       PRES   REMARKS
CARBONDALE     CLOUDY    51  45  79 SW8       29.80F
EFFINGHAM*     RAIN      53  47  80 SW10      29.73S
MT. VERNON     CLOUDY    52  43  71 S9        29.76F
SALEM*         CLOUDY    56  44  63 SW14      29.73F
$$

ILZ067-068-072-073-078-083-087-091-041100-
SOUTHEAST ILLINOIS

CITY           SKY/WX    TMP DP  RH WIND       PRES   REMARKS
LAWRENCEVILLE  CLOUDY    51  45  79 SW12      29.74F
FLORA*         CLOUDY    54  46  74 SW10      29.74F
HARRISBURG*    CLEAR     49  45  83 SW3       29.81F
ROBINSON*      CLOUDY    52  44  75 SW13      29.73F
$$

ABBREVIATIONS USED IN REMARKS
   TC - TEMPERATURE IN CELSIUS
  WCI - WIND CHILL INDEX
   HX - HEAT INDEX
  VSB - VISIBILITY
$$





USA.gov is the U.S. government's official web portal to all federal, state and local government web resources and services.